Regional Weather Roundup
Issued by NWS Green Bay, WI

Home | Current Version | Previous Version | Graphics & Text | Print | Product List | Glossary Off
Versions: 1 2 3 4 5 6 7 8 9 10 11 12 13 14 15 16 17 18 19 20 21 22 23 24 25 26 27 28 29 30 31 32 33 34 35 36 37 38 39 40 41 42 43 44 45 46 47 48 49 50

000
ASUS43 KGRB 060210
RWRGRB

NORTH-CENTRAL AND NORTHEAST WISCONSIN REGIONAL WEATHER ROUNDUP
NATIONAL WEATHER SERVICE GREEN BAY WI
900 PM CDT TUE MAY 05 2015

WIZ005-009-010>012-018-019-060300-
NORTH CENTRAL WISCONSIN

CITY           SKY/WX    TMP DP  RH WIND       PRES   REMARKS
IRONWOOD       CLEAR     64  28  25 S5        30.16R
MANITOWISH WTR CLEAR     57  28  33 S6        30.22R
ARBOR VITAE    PTCLDY    59  25  27 S5        30.22S
EAGLE RIVER    PTCLDY    57  24  27 S6        30.23R
LAND O LAKES   CLEAR     59  29  31 SE5       30.24R
RHINELANDER    PTCLDY    58  25  28 S5        30.24R
PHILLIPS       PTCLDY    59  30  32 SE3       30.21R
ANTIGO         MOCLDY    52  32  46 SE7       30.25R
TOMAHAWK       PTCLDY    54  27  35 CALM      30.23S
MERRILL        MOCLDY    56  26  31 SE5       30.24R
$$

WIZ013-073-060300-
NORTHEAST WISCONSIN

CITY           SKY/WX    TMP DP  RH WIND       PRES   REMARKS
IRON MOUNTAIN  PTCLDY    55  28  35 SE3       30.25R
MARINETTE      CLOUDY    54  32  43 CALM      30.25S
OCONTO         CLOUDY    52  35  51 CALM      30.25R
$$

WIZ017-030-035>037-045-060300-
CENTRAL WISCONSIN

CITY           SKY/WX    TMP DP  RH WIND       PRES   REMARKS
MEDFORD        MOCLDY    56  27  32 SE5       30.21S
WAUSAU         MOCLDY    59  17  19 SE10      30.21S
MOSINEE        PTCLDY    57  23  26 E5        30.24R
MARSHFIELD     CLOUDY    59  37  44 SE9       30.21S
WISC RAPIDS    CLOUDY    59  36  42 SE8       30.23R
STEVENS POINT  CLOUDY    57  33  40 E5        30.23S
WAUPACA        CLOUDY    59  46  60 CALM      30.24R
SHAWANO        CLOUDY    58  22  25 E5        30.25S
CLINTONVILLE   CLOUDY    59  21  23 E6        30.24S
$$

WIZ038-039-048-051-060300-
FOX VALLEY

CITY           SKY/WX    TMP DP  RH WIND       PRES   REMARKS
NWS GREEN BAY  CLOUDY    58  32  37 CALM      30.25R
APPLETON       MOCLDY    57  36  44 SE7       30.24S
OSHKOSH        CLOUDY    55  46  71 CALM      30.24R
FOND DU LAC    CLOUDY    54  45  71 E3        30.24R
$$

WIZ022-050-052-060300-
EAST CENTRAL WISCONSIN

CITY           SKY/WX    TMP DP  RH WIND       PRES   REMARKS
STURGEON BAY   CLOUDY    54  37  54 NE3       30.28R
MANITOWOC      CLOUDY    48  41  76 SE3       30.27R
SHEBOYGAN      LGT RAIN  49  42  77 NE6       30.25R
$$

LMZ563-521-522-541>543-060300-
LAKESHORE

STATION/POSITION TIME  TEMP    WIND        PRES    VSBY  WAVE
                       AIR SEA DIR/SP/G                  HT/PER
                 (UTC) (F)     (DEG/KT/KT) (MB)    (MI)  (FT/S)
SHEBOYGAN LKSHOR 0200   45      20/  7/  8 1025.3R
KEWAUNEE LKSHORE 0200   45      20/  2/  5 1023.6R
NORTHPORT PIER   0200   49     290/  1/  2 1024.4S
SISTER BAY LKSHO 0200   47        CALM       N/A
CHAMBERS ISLAND  0200   48      CALM  /  1 1024.7R
MENOMINEE LKSHOR 0200   53      10/  5/  5 1024.8S
$$


USA.gov is the U.S. government's official web portal to all federal, state and local government web resources and services.